Zurück zum Katalog

BREEZE-M DEB

LostHEO
NORAD 38595·DEBRIS·🇷🇺 Russia

Gestartet Mar 14, 2008 von Baikonur Cosmodrome

Loading…

Nächste Überflüge (nächste 24 Stunden)

TLE

VeraltetSource: Space-Track

Epoche: Oct 29, 2015, 01:20 UTC

1 38595U 08011AS  15302.05614124  .00000000  00000-0  00000+0 0  9993
2 38595  49.7924 253.5313 6493810 120.9284 318.2576  3.08428684 52930

Verfolge BREEZE-M DEB in Echtzeit mit AllMySat

Download on the App Store